sat.trackr.live / text

‹ back to catalog

STARLINK-32465

NORAD 61716 · 2024-196K

PAYLOAD ACTIVE UNKNOWN

§ Identity

Operator
Country
US
Launch date
2024-10-30
Launch site
AFETR
Launch vehicle
Mass (kg)
RCS (m²)

Purposes: comms

External: N2YO · Heavens-Above · Gunter

§ Orbital elements

Epoch: 2026-05-25T04:18:46.689120Z

Period
94.11 min
Inclination
53.1609°
Eccentricity
0.0001343
Mean motion
15.30201651 rev/d
Perigee alt
474.3 km
Apogee alt
476.1 km
Semi-major
6,853.3 km
B*
3.2731e-5
RAAN
106.3337°
Arg perigee
102.4187°
Mean anomaly
257.6964°
Rev number
8,886

§ Raw data

STARLINK-324651 61716U 24196K   26145.17970705  .00000610  00000+0  32731-4 0  99932 61716  53.1609 106.3337 0001343 102.4187 257.6964 15.30201651 88867

JSON: /api/v1/satellites/61716 · /tle

For live sub-satellite position, see the globe view (requires WebGL).

§ Visibility from observer

Set your observer location to see the next 7 days of passes ≥ 10°. The values pass through the URL so the page stays shareable.

No JS? Fill the form by hand. The geolocation button needs JavaScript.